This is the latest recevied weather packets stored in our database for station/object N6WDO. If no packets are shown the sender has not sent any weather packets the latest 10 day(s).
| Time | Temp. | Humidity | Pressure | Rain* | Wind** | Luminosity | Snow |
|---|---|---|---|---|---|---|---|
| 1777782361 | 15.56° C | 69% | 1012.1 hPa | 0 mm | - | 0 W/m² | - |
| 1777782057 | 16.11° C | 66% | 1012 hPa | 0 mm | - | 0 W/m² | - |
| 1777781754 | 16.11° C | 66% | 1011.9 hPa | 0 mm | - | 0 W/m² | - |
| 1777781452 | 16.11° C | 63% | 1011.9 hPa | 0 mm | - | 0 W/m² | - |
| 1777781149 | 16.67° C | 63% | 1011.9 hPa | 0 mm | - | 0 W/m² | - |
| 1777780846 | 16.67° C | 61% | 1011.9 hPa | 0 mm | - | 0 W/m² | - |
| 1777780543 | 16.11° C | 64% | 1012 hPa | 0 mm | - | 0 W/m² | - |
| 1777780241 | 16.11° C | 64% | 1011.7 hPa | 0 mm | - | 0 W/m² | - |
| 1777779937 | 16.67° C | 66% | 1011.8 hPa | 0 mm | - | 0 W/m² | - |
| 1777779635 | 16.67° C | 59% | 1011.9 hPa | 0 mm | - | 0 W/m² | - |
| 1777779332 | 16.67° C | 64% | 1011.7 hPa | 0 mm | - | 0 W/m² | - |
| 1777779030 | 16.67° C | 64% | 1011.9 hPa | 0 mm | - | 0 W/m² | - |
| 1777778728 | 16.67° C | 65% | 1011.7 hPa | 0 mm | - | 0 W/m² | - |
| 1777778426 | 17.22° C | 66% | 1011.5 hPa | 0 mm | - | 0 W/m² | - |
| 1777778123 | 17.22° C | 61% | 1011.7 hPa | 0 mm | - | 0 W/m² | - |
| 1777777820 | 17.22° C | 60% | 1011.5 hPa | 0 mm | - | 0 W/m² | - |
| 1777777516 | 17.78° C | 62% | 1011.4 hPa | 0 mm | - | 0 W/m² | - |
| 1777777214 | 17.78° C | 62% | 1011.5 hPa | 0 mm | - | 0 W/m² | - |
| 1777776910 | 17.78° C | 62% | 1011.5 hPa | 0 mm | - | 1 W/m² | - |
| 1777776608 | 18.33° C | 58% | 1011.6 hPa | 0 mm | - | 2 W/m² | - |
| 1777776304 | 17.78° C | 58% | 1011.5 hPa | 0 mm | - | 3 W/m² | - |
| 1777776001 | 18.33° C | 61% | 1011.4 hPa | 0 mm | - | 4 W/m² | - |
| 1777775698 | 18.89° C | 57% | 1011.4 hPa | 0 mm | - | 6 W/m² | - |
| 1777775395 | 19.44° C | 57% | 1011.6 hPa | 0 mm | - | 9 W/m² | - |
| 1777775090 | 19.44° C | 54% | 1011.4 hPa | 0 mm | - | 12 W/m² | - |
* Rain latest hour (hover to see other rain measurements)
** Current wind speed in m/s (hover to see current wind gust speed)